TimeCST,TemperatureF,Dew PointF,Humidity,Sea Level PressureIn,VisibilityMPH,Wind Direction,Wind SpeedMPH,Gust SpeedMPH,PrecipitationIn,Events,Conditions,WindDirDegrees,DateUTC
12:10 AM,-3.3,-8.5,78,30.58,10.0,North,4.6,-,N/A,,Clear,350,2010-01-02 06:10:00
12:30 AM,-3.6,-8.3,80,30.56,10.0,NNE,6.9,-,N/A,,Clear,20,2010-01-02 06:30:00
12:50 AM,-3.6,-9.0,78,30.57,10.0,Calm,Calm,-,N/A,,Clear,0,2010-01-02 06:50:00
1:10 AM,-3.5,-8.7,78,30.57,10.0,NW,3.5,-,N/A,,Clear,320,2010-01-02 07:10:00
1:30 AM,-4.4,-9.6,78,30.56,10.0,NNW,4.6,-,N/A,,Clear,330,2010-01-02 07:30:00
1:50 AM,-4.5,-9.6,79,30.56,10.0,NNW,3.5,-,N/A,,Clear,330,2010-01-02 07:50:00
2:10 AM,-4.7,-9.4,80,30.58,10.0,Calm,Calm,-,N/A,,Clear,0,2010-01-02 08:10:00
2:30 AM,-4.4,-9.4,79,30.58,10.0,Calm,Calm,-,N/A,,Clear,0,2010-01-02 08:30:00
2:50 AM,-5.1,-9.9,80,30.57,10.0,Calm,Calm,-,N/A,,Clear,0,2010-01-02 08:50:00
3:10 AM,-5.1,-9.6,81,30.56,10.0,Calm,Calm,-,N/A,,Clear,0,2010-01-02 09:10:00
3:30 AM,-5.6,-10.1,81,30.55,10.0,Calm,Calm,-,N/A,,Clear,0,2010-01-02 09:30:00
3:50 AM,-6.0,-10.5,81,30.55,10.0,Calm,Calm,-,N/A,,Clear,0,2010-01-02 09:50:00
4:10 AM,-6.3,-11.2,79,30.54,10.0,Calm,Calm,-,N/A,,Clear,0,2010-01-02 10:10:00
4:30 AM,-6.2,-11.0,79,30.54,10.0,Calm,Calm,-,N/A,,Clear,0,2010-01-02 10:30:00
4:50 AM,-6.5,-11.4,79,30.53,10.0,Calm,Calm,-,N/A,,Clear,0,2010-01-02 10:50:00
5:10 AM,-6.3,-11.2,79,30.52,10.0,NE,4.6,-,N/A,,Clear,40,2010-01-02 11:10:00
5:30 AM,-6.7,-11.2,81,30.52,10.0,NE,4.6,-,N/A,,Clear,50,2010-01-02 11:30:00
5:50 AM,-4.9,-10.3,78,30.51,10.0,ENE,4.6,-,N/A,,Mostly Cloudy,60,2010-01-02 11:50:00
6:10 AM,-4.5,-9.9,78,30.51,10.0,ENE,5.8,-,N/A,,Overcast,60,2010-01-02 12:10:00
6:30 AM,-4.0,-9.6,77,30.52,10.0,ENE,4.6,-,N/A,,Overcast,70,2010-01-02 12:30:00
6:50 AM,-3.3,-9.4,75,30.51,10.0,ENE,3.5,-,N/A,,Mostly Cloudy,70,2010-01-02 12:50:00
7:10 AM,-3.3,-10.3,72,30.51,10.0,ENE,5.8,-,N/A,,Overcast,70,2010-01-02 13:10:00
7:30 AM,-3.3,-10.1,73,30.51,10.0,East,3.5,-,N/A,,Mostly Cloudy,90,2010-01-02 13:30:00
7:50 AM,-3.1,-10.1,72,30.50,10.0,East,3.5,-,N/A,,Scattered Clouds,90,2010-01-02 13:50:00
8:10 AM,-3.1,-10.3,71,30.50,10.0,East,5.8,-,N/A,,Scattered Clouds,100,2010-01-02 14:10:00
8:30 AM,-2.7,-10.1,71,30.50,10.0,ESE,5.8,-,N/A,,Mostly Cloudy,110,2010-01-02 14:30:00
8:50 AM,-2.4,-9.8,71,30.50,10.0,ESE,6.9,-,N/A,,Overcast,110,2010-01-02 14:50:00
9:10 AM,-2.2,-9.8,70,30.51,10.0,East,5.8,-,N/A,,Overcast,100,2010-01-02 15:10:00
9:30 AM,-1.8,-9.6,70,30.50,10.0,ESE,4.6,-,N/A,,Overcast,110,2010-01-02 15:30:00
9:50 AM,-1.5,-9.6,69,30.50,10.0,SSE,3.5,-,N/A,,Overcast,150,2010-01-02 15:50:00
10:10 AM,-0.9,-9.0,69,30.49,10.0,ESE,6.9,-,N/A,,Overcast,110,2010-01-02 16:10:00
10:30 AM,-0.6,-8.7,69,30.49,10.0,ESE,5.8,-,N/A,,Overcast,110,2010-01-02 16:30:00
10:50 AM,0.1,-8.1,68,30.48,10.0,ESE,5.8,-,N/A,,Overcast,110,2010-01-02 16:50:00
11:10 AM,0.5,-7.8,68,30.47,10.0,ESE,5.8,-,N/A,,Overcast,110,2010-01-02 17:10:00
11:30 AM,1.0,-7.8,66,30.47,10.0,East,5.8,-,N/A,,Overcast,100,2010-01-02 17:30:00
11:50 AM,1.8,-7.1,67,30.46,10.0,ESE,5.8,-,N/A,,Overcast,110,2010-01-02 17:50:00
12:10 PM,2.3,-6.7,66,30.45,10.0,ESE,5.8,-,N/A,,Overcast,120,2010-01-02 18:10:00
12:30 PM,2.8,-6.3,66,30.43,10.0,ESE,5.8,-,N/A,,Overcast,120,2010-01-02 18:30:00
12:50 PM,2.8,-6.2,66,30.42,10.0,ESE,6.9,-,N/A,,Overcast,110,2010-01-02 18:50:00
1:10 PM,3.0,-5.3,68,30.42,10.0,ESE,8.1,-,N/A,,Overcast,110,2010-01-02 19:10:00
1:30 PM,3.6,-4.9,68,30.41,7.0,ESE,5.8,-,N/A,,Overcast,110,2010-01-02 19:30:00
1:50 PM,3.6,-3.3,73,30.40,1.0,East,5.8,-,N/A,Snow,Light Snow,100,2010-01-02 19:50:00
2:10 PM,3.2,-2.4,78,30.39,1.2,East,6.9,-,N/A,Snow,Light Snow,100,2010-01-02 20:10:00
2:30 PM,3.2,-2.2,78,30.39,0.8,ESE,5.8,-,N/A,Snow,Light Snow,110,2010-01-02 20:30:00
2:50 PM,3.2,-1.8,80,30.38,1.2,East,5.8,-,0.01,Snow,Light Snow,90,2010-01-02 20:50:00
3:10 PM,3.2,-1.7,80,30.38,1.5,East,4.6,-,N/A,Snow,Light Snow,100,2010-01-02 21:10:00
3:30 PM,3.6,-1.3,80,30.37,1.2,East,4.6,-,N/A,Snow,Light Snow,100,2010-01-02 21:30:00
3:50 PM,3.6,-1.3,80,30.37,1.8,East,5.8,-,N/A,Snow,Light Snow,100,2010-01-02 21:50:00
4:10 PM,3.6,-1.1,81,30.37,1.0,ENE,6.9,-,N/A,Snow,Light Snow,70,2010-01-02 22:10:00
4:30 PM,3.2,-1.3,82,30.37,0.8,East,5.8,-,0.01,Snow,Light Snow,80,2010-01-02 22:30:00
4:50 PM,3.2,-1.3,82,30.38,1.0,East,4.6,-,0.01,Snow,Light Snow,100,2010-01-02 22:50:00
5:10 PM,3.2,-1.3,82,30.38,2.5,East,5.8,-,N/A,Snow,Light Snow,90,2010-01-02 23:10:00
5:30 PM,3.2,-1.5,81,30.37,5.0,East,8.1,-,N/A,Snow,Light Snow,90,2010-01-02 23:30:00
5:50 PM,3.2,-1.8,80,30.36,10.0,East,11.5,-,N/A,,Overcast,80,2010-01-02 23:50:00
6:10 PM,3.0,-2.4,78,30.36,10.0,East,10.4,-,N/A,,Overcast,80,2010-01-03 00:10:00
6:30 PM,3.2,-2.0,79,30.37,10.0,East,8.1,-,N/A,Snow,Light Snow,80,2010-01-03 00:30:00
6:50 PM,3.2,-1.5,81,30.37,10.0,East,8.1,-,N/A,,Overcast,80,2010-01-03 00:50:00
7:10 PM,3.4,-1.5,80,30.37,10.0,East,9.2,-,N/A,,Overcast,90,2010-01-03 01:10:00
7:30 PM,3.7,-1.3,80,30.37,10.0,East,6.9,-,N/A,,Overcast,80,2010-01-03 01:30:00
7:50 PM,3.9,-0.9,80,30.38,10.0,East,8.1,-,N/A,,Overcast,80,2010-01-03 01:50:00
8:10 PM,3.9,-0.9,80,30.38,10.0,East,6.9,-,N/A,,Overcast,80,2010-01-03 02:10:00
8:30 PM,3.7,-1.1,80,30.39,10.0,East,8.1,-,N/A,,Overcast,80,2010-01-03 02:30:00
8:50 PM,3.7,-1.1,80,30.38,10.0,ENE,8.1,-,N/A,,Overcast,70,2010-01-03 02:50:00
9:10 PM,3.6,-1.3,80,30.37,4.0,East,10.4,-,N/A,,Overcast,80,2010-01-03 03:10:00
9:30 PM,3.2,-1.3,82,30.37,5.0,East,11.5,-,N/A,Snow,Light Snow,90,2010-01-03 03:30:00
9:50 PM,3.2,-1.7,80,30.38,7.0,East,10.4,-,N/A,Snow,Light Snow,90,2010-01-03 03:50:00
10:10 PM,3.2,-1.7,80,30.39,10.0,East,8.1,-,N/A,,Overcast,80,2010-01-03 04:10:00
10:30 PM,3.6,-1.5,80,30.38,10.0,East,9.2,-,N/A,,Overcast,90,2010-01-03 04:30:00
10:50 PM,3.6,-1.3,80,30.38,10.0,East,9.2,-,N/A,,Overcast,100,2010-01-03 04:50:00
11:10 PM,3.7,-1.3,80,30.39,7.0,East,5.8,-,N/A,,Overcast,90,2010-01-03 05:10:00
11:30 PM,3.9,-0.9,80,30.39,7.0,East,6.9,-,N/A,Snow,Light Snow,90,2010-01-03 05:30:00
11:50 PM,4.1,-0.6,81,30.39,5.0,East,6.9,-,N/A,Snow,Light Snow,80,2010-01-03 05:50:00